OneWeb SL0061

operational
NORAD ID: 45428 Int'l Des: 2020-020 Owner: ONEWEB Country: UK Constellation: oneweb
LEOCIRCULARPOLARONEWEB_TYPE

Über OneWeb SL0061

Beschreibung wird geladen...

Live-Position

3D-Globus wird geladen...

Nächste Überflüge

Höhenverlauf

Altitude vs Time

uPlot chart will show altitude changes over time

Zweizeiliger Elementsatz

1 45428U 20020E 26034.49665969 .00000250 00000-0 66913-3 0 9991
2 45428 87.8824 47.6520 0001786 91.2064 268.9268 13.11413278285108
Epoch: 3. Feb. 2026 • Age: 20 hours

Aktueller Status

Höhe 1219.8 km
Geschwindigkeit 7.25 km/s
Subsatellitenpunkt 21.25°N, 151.25°E
Startdatum 21. März 2020
Alter 5.8 years
Typ internet

Technische Details

Klassifizierung Payload
Masse 148.00 kg
Trockenmasse 140.00 kg
Gesamtmasse 148.00 kg
Länge 1.30 m
Durchmesser 1.00 m
Spannweite 5.00 m
Form Trapezoid+2 pan
Hersteller ONEWUS
Bus-Typ ARROW
Phasenstatus In Orbit
Besitzer/Staat ONEWEB/UK

Große Konstellationen

Loading constellations...